Preview of NWS' New Version of Forecast
This preview is not operational and should not be used for support decisions.

Regional Weather Roundup (RWR)

Issued by National Weather Service (NWS)

                            
801 
ASCA42 TJSJ 252310
RWRPR 
PUERTO RICO/U.S. VIRGIN ISLANDS HOURLY WEATHER ROUNDUP
NATIONAL WEATHER SERVICE SAN JUAN PR
700 PM AST MON MAR 25 2019

PRZ001>002-007>008-010-260000-
PUERTO RICO
  
CITY           SKY/WX    TMP DP  RH WIND       PRES   REMARKS
SAN JUAN LMM   PTCLDY    81  68  65 E10       29.97R                  
AGUADILLA      CLOUDY    77  72  83 SW3       29.97R                  
CEIBA          PTCLDY    81  70  69 E12       29.99R                  
$$

VIZ001>002-260000-
U.S. VIRGIN ISLANDS
  
CITY           SKY/WX    TMP DP  RH WIND       PRES   REMARKS
CHARLOTTE AMA  CLEAR     81  70  69 E14G21    29.97R                  
CHRISTIANSTED  CLEAR     79  66  65 E13       29.98R                  
$$

HOURLY WEATHER ROUNDUP FOR THE NEWS MEDIA
  
CITY           SKY/WX    TMP DP  RH WIND       PRES   REMARKS
ORLANDO        FAIR      82  55  39 W10       30.00F                  
NEW YORK       CLOUDY    46  33  60 S13       30.05R                  
NEWARK         CLOUDY    49  23  36 W9        30.05R                  
CHICAGO        FAIR      38   8  29 N18       30.31R WCI  28          
HARTFORD       FAIR      39  32  76 SE6       30.03R WCI  35          
BOSTON         MOCLDY    40  23  50 SE12      30.04R WCI  33          
DALLAS         MOSUNNY   72  50  45 N12       30.17S                  
PHILADELPHIA   LGT RAIN  43  38  82 N12G21    30.08R                  
LOS ANGELES    MOSUNNY   64  50  60 W18       30.08F                  
WASHINGTON DC  CLOUDY    48  43  82 N13       30.02R